Location: Stoke Bliss
(52.2667°N, 2.5167°W)
Time: 20:24:53
(UTC+00:00)

Gbstr 26 Del rocket - Pass Details

Date: 03 March 2021
Orbit: 492 x 1264 km, 51.8° (Epoch: 15 April)

Event Time Altitude Azimuth Distance (km) Brightness Sun altitude
Rises 19:52:24 0° 270° (W) 2,844 7.9 -18.9°
Reaches altitude 10° 19:54:29 10° 270° (W) 2,026 6.8 -19.2°
Maximum altitude 19:59:08 86° 182° (S) 742 3.3 -19.9°
Enters shadow 20:01:05 41° 96° (E) 1,119 3.8 -20.2°
